Aurora, IL

6:44 PM CDT on August 19, 2017 (GMT -0500)
Aurora Municipal

Weather History for KARR - April, 2014

Change the Weather History Date:

Thursday, April 17, 2014

  Actual Average Record
Temperature  
Mean Temperature 49 °F 49 °F  
Max Temperature 59 °F 61 °F 85 °F (2002)
Min Temperature 39 °F 38 °F 28 °F (1997)
Degree Days  
Heating Degree Days 16 16  
Month to date heating degree days 330 319  
Since 1 July heating degree days 6987 6327  
Cooling Degree Days 0 0  
Month to date cooling degree days 0 0  
Year to date cooling degree days 0 0  
Moisture  
Dew Point 35 °F    
Average Humidity 65    
Maximum Humidity 82    
Minimum Humidity 47    
Precipitation  
Precipitation 0.00 in 0.11 in 2.14 in (2013)
Month to date precipitation 1.38 1.76  
Year to date precipitation 3.95 7.08  
Sea Level Pressure  
Sea Level Pressure 30.19 in    
Wind  
Wind Speed 10 mph (SSW)    
Max Wind Speed 21 mph    
Max Gust Speed 27 mph    
Visibility 9 miles    
Events      
T = Trace of Precipitation, MM = Missing Value Source: NWS Daily Summary

Daily Weather History Graph

Daily Weather History Graph

Search for Another Location

Airport or City:

Trip Planner

Search our weather history database for the weather conditions in past years. The results will help you decide how hot, cold, wet, or windy it might be!

Date:

Astronomy

Apr. 17, 2014 Rise Set
Actual Time 6:10 AM CDT 7:36 PM CDT
Civil Twilight 5:41 AM CDT 8:06 PM CDT
Nautical Twilight 5:06 AM CDT 8:41 PM CDT
Astronomical Twilight 4:29 AM CDT 9:18 PM CDT
Moon 10:24 PM CDT (4/17) 7:40 AM CDT (4/17)
Length of Visible Light 14h 24m
Length of Day
13h 26m
Waning Gibbous, 93% of the Moon is Illuminated
Apr 17
Waning Gibbous
Apr 22
Last Quarter
Apr 29
New
May 6
First Quarter
May 14
Full

Hourly Weather History & Observations

Time (CDT) Temp. Windchill Dew Point Humidity Pressure Visibility Wind Dir Wind Speed Gust Speed Precip Events Conditions
12:52 AM 41.0 °F 34.3 °F 27.0 °F 57% 30.15 in 10.0 mi SE 11.5 mph - N/A   Clear
1:52 AM 39.0 °F 31.8 °F 27.0 °F 62% 30.14 in 10.0 mi SE 11.5 mph - N/A   Clear
2:52 AM 39.9 °F 31.8 °F 27.0 °F 60% 30.12 in 10.0 mi SE 15.0 mph - N/A   Overcast
3:52 AM 42.1 °F 34.5 °F 27.0 °F 55% 30.12 in 10.0 mi SSE 15.0 mph - N/A   Overcast
4:52 AM 42.1 °F 33.9 °F 27.0 °F 55% 30.11 in 10.0 mi SSE 17.3 mph 23.0 mph N/A   Overcast
5:52 AM 41.0 °F 32.5 °F 28.0 °F 60% 30.11 in 10.0 mi SSE 17.3 mph - N/A   Scattered Clouds
6:52 AM 39.0 °F 31.4 °F 28.9 °F 67% 30.14 in 10.0 mi South 12.7 mph - N/A   Clear
7:52 AM 43.0 °F 36.0 °F 30.9 °F 62% 30.15 in 10.0 mi South 13.8 mph - N/A   Clear
8:52 AM 48.0 °F - 32.0 °F 54% 30.16 in 10.0 mi SSW 15.0 mph - N/A   Clear
9:52 AM 51.1 °F - 36.0 °F 56% 30.17 in 9.0 mi SW 11.5 mph - N/A   Clear
10:52 AM 53.1 °F - 39.9 °F 61% 30.19 in 6.0 mi West 15.0 mph 21.9 mph N/A   Haze
12:52 PM 55.0 °F - 39.9 °F 57% 30.21 in 9.0 mi WSW 10.4 mph - N/A   Mostly Cloudy
12:59 PM 55.9 °F - 39.0 °F 53% 30.20 in 9.0 mi WSW 12.7 mph 18.4 mph N/A   Scattered Clouds
1:52 PM 57.9 °F - 39.0 °F 49% 30.22 in 9.0 mi SSW 12.7 mph - N/A   Clear
2:52 PM 59.0 °F - 39.0 °F 48% 30.21 in 10.0 mi WSW 9.2 mph 18.4 mph N/A   Clear
3:52 PM 59.0 °F - 39.0 °F 48% 30.21 in 9.0 mi SW 11.5 mph 23.0 mph N/A   Partly Cloudy
4:52 PM 57.9 °F - 37.0 °F 46% 30.22 in 9.0 mi WSW 9.2 mph - N/A   Clear
5:52 PM 55.9 °F - 37.9 °F 51% 30.22 in 8.0 mi WSW 8.1 mph - N/A   Clear
6:52 PM 55.0 °F - 37.9 °F 53% 30.23 in 8.0 mi WSW 8.1 mph - N/A   Partly Cloudy
7:52 PM 52.0 °F - 39.0 °F 61% 30.25 in 8.0 mi WSW 8.1 mph - N/A   Overcast
8:52 PM 50.0 °F - 39.0 °F 66% 30.26 in 8.0 mi WSW 4.6 mph - N/A   Mostly Cloudy
9:52 PM 46.9 °F - 37.9 °F 71% 30.26 in 8.0 mi West 5.8 mph - N/A   Clear
10:52 PM 45.0 °F - 37.9 °F 76% 30.26 in 7.0 mi Calm Calm - N/A   Clear
11:52 PM 43.0 °F - 37.9 °F 82% 30.26 in 7.0 mi Calm Calm - N/A   Clear